Location: UBC Liquid-Mirror Observatory
(49.2876°N, 122.5728°W)
Time: 05:21:31
(UTC-08:00)

Daily predictions for brighter satellites

Satellite Brightness Start Highest point End
(mag) Time Altitude Azimuth Time Altitude Azimuth Time Altitude Azimuth
ATLAS 2AS CENTAUR R/B 4.4 03:10:35 32° NNE 03:10:35 32° NNE 03:16:46 10° E
USA 234 4.5 03:34:17 10° ENE 03:38:24 35° NE 03:38:24 35° NE
SeaSat 1 4.4 04:02:29 10° NE 04:06:20 24° ESE 04:06:20 24° ESE
ADEOS II 4.2 04:02:10 10° NNE 04:03:49 20° NNE 04:03:49 20° NNE
Cosmos 2297 Rocket 3.7 04:31:27 27° NNE 04:31:27 27° NNE 04:34:03 10° NNE
COSMO-SKYMED 1 4.5 04:26:44 10° SE 04:29:29 28° E 04:29:29 28° E
ADEOS Rocket 4.4 04:32:21 10° N 04:37:15 36° NNW 04:37:15 36° NNW
Cosmos 2227 Rocket 3.8 04:45:17 23° N 04:45:17 23° N 04:47:43 10° NNE
NOSS 3-1 (A) 3.9 04:53:26 62° WSW 04:53:38 62° SW 05:01:47 10° SSE
Cosmos 1943 3.3 04:58:36 55° N 04:59:48 74° ENE 05:05:29 10° SE
Meteor 1-16 Rocket 4.1 04:59:40 64° SSE 05:00:27 80° E 05:05:47 10° NNE
Tiangong 2 4.2 05:03:21 12° SE 05:03:21 12° SE 05:03:53 10° ESE
ATLAS 2AS CENTAUR R/B 3.3 04:58:02 31° NNW 05:02:14 67° NE 05:09:55 10° SE
Cosmos 2112 Rocket 4.2 05:01:39 52° N 05:02:51 71° ENE 05:08:11 10° SSE
Cosmos 2233 Rocket 3.8 05:03:35 69° WSW 05:04:03 72° W 05:10:25 10° N
Cosmos 292 Rocket 4.3 05:07:11 48° SSE 05:07:11 48° SSE 05:10:37 10° SSE
Cosmos 2221 3.0 05:07:10 31° SSE 05:08:59 57° E 05:13:13 10° NNE
Meteor 1-11 4.2 05:17:21 62° W 05:17:32 63° W 05:23:14 10° S
NOAA 6 4.2 05:12:22 10° NNE 05:17:36 73° ESE 05:22:46 10° S
SKYMED 2 3.6 05:14:09 10° SSE 05:18:08 75° SSE 05:18:08 75° SSE
Cosmos 2263 Rocket 3.7 05:15:01 10° S 05:20:11 37° ESE 05:25:22 10° NE
USA 234 3.6 05:16:31 10° E 05:22:53 57° NNE 05:25:45 33° NW
Cosmos 1777 Rocket 3.8 05:22:45 57° SW 05:23:47 77° WNW 05:29:01 10° NNE
Cosmos 1666 Rocket 3.9 05:22:00 17° N 05:25:24 67° ENE 05:29:52 10° SSE
Okean-O 4.0 05:23:14 10° N 05:25:21 27° N 05:25:21 27° N
SJ-6F 4.3 05:28:58 10° N 05:32:58 70° NW 05:32:58 70° NW
Cosmos 2034 Rocket 4.2 05:30:41 10° S 05:36:53 75° E 05:43:11 10° NNE
Feng Yun 1-1 Rocket 4.2 05:32:42 10° N 05:38:04 56° WNW 05:41:06 26° SW
Cosmos 1908 4.4 05:34:27 10° SSE 05:38:04 42° E 05:41:44 10° NNE
SeaSat 1 2.4 05:39:28 10° NNE 05:44:21 60° NW 05:46:09 36° WSW
Cosmos 1513 Rocket 4.5 05:38:36 10° S 05:44:57 87° W 05:51:25 10° N
ADEOS II 3.6 05:42:28 10° N 05:44:47 21° NNW 05:44:47 21° NNW
Cosmos 192 4.4 05:43:46 17° NNW 05:47:34 77° ENE 05:52:32 10° SSE
Cosmos 1092 Rocket 4.4 05:42:15 10° N 05:48:32 65° ENE 05:54:41 10° SSE
Cosmos 1626 2.3 05:50:13 51° SW 05:50:13 51° SW 05:53:24 10° S
Ariane Rocket 3.2 05:48:35 10° NNE 05:53:43 74° ESE 05:58:49 10° S
Cosmos 1470 Rocket 4.0 05:54:04 10° N 05:58:23 61° ENE 06:02:41 10° SSE
Meteor 2-1 Rocket 4.3 05:55:01 10° SSW 06:00:37 55° WNW 06:06:21 10° N
Cosmos 1805 Rocket 4.0 06:02:50 35° WNW 06:03:28 37° W 06:07:29 10° SSW
Cosmos 1464 Rocket 4.0 05:57:29 10° SSW 06:03:41 56° WNW 06:09:50 10° N
COSMO-SKYMED 1 3.3 06:02:51 10° SSW 06:06:43 31° W 06:06:43 31° W
Cosmos 1680 Rocket 4.2 06:06:38 28° WNW 06:07:59 32° WSW 06:12:39 10° SSW
Cosmos 1356 Rocket 4.3 06:11:10 29° WSW 06:11:10 29° WSW 06:14:27 10° SSW
Meteor 1-28 Rocket 3.7 06:08:18 10° SSW 06:11:46 35° W 06:12:26 33° WNW
Cosmos 1898 Rocket 3.9 06:07:59 10° S 06:13:13 68° ESE 06:18:31 10° NNE
ATLAS CENTAUR R/B 3.5 06:10:47 21° NW 06:13:28 46° NNE 06:23:32 10° E
PAYLOAD A 4.2 06:08:41 10° NNE 06:13:41 72° ESE 06:18:28 10° S
Cosmos 2297 Rocket 3.8 06:13:16 16° NW 06:13:47 16° NNW 06:17:14 10° N
Sich 1 3.4 06:11:40 14° NNW 06:15:08 41° W 06:19:11 10° SSW
IDEFIX/ARIANE 42P 3.1 06:19:36 10° NNE 06:24:52 65° ESE 06:30:06 10° S
Cosmos 1633 Rocket 3.5 06:22:18 10° NNW 06:26:19 37° W 06:30:18 10° SSW
Cosmos 2227 Rocket 4.1 06:27:06 11° NW 06:28:14 12° NNW 06:30:25 10° N
Helios 1B rocket 2.7 06:26:37 10° SSE 06:30:42 70° ENE 06:34:48 10° N
Cosmos 2150 Rocket 4.2 06:25:22 10° SSW 06:30:46 78° ESE 06:36:07 10° NNE
Cosmos 1151 Rocket 3.6 06:27:03 10° S 06:31:15 60° E 06:35:28 10° NNE
GENESIS II 4.2 06:28:17 17° NW 06:31:21 84° SW 06:35:19 10° SE
Cosmos 1328 Rocket 3.5 06:27:52 10° SSW 06:32:12 70° W 06:36:38 10° N
CSL-04 DEB 4.5 06:29:04 10° N 06:33:26 70° WNW 06:37:41 10° SSW
In-Cosmos 22 Rocket 4.4 06:29:27 10° N 06:34:59 76° ENE 06:40:37 10° SSE
Cosmos 2228 Rocket 3.0 06:31:20 10° SSW 06:35:42 62° WNW 06:40:05 10° N
CZ-4 R/B 1.5 06:32:03 10° NNE 06:36:10 86° ESE 06:40:19 10° SSW
Tiangong 2 2.9 06:35:21 11° SW 06:37:48 25° S 06:40:27 10° ESE
Cosmos 1937 Rocket 3.6 06:33:22 10° SSW 06:38:30 79° ESE 06:43:40 10° NNE
CZ-2C R/B 2.3 06:34:39 10° NNE 06:39:16 84° ESE 06:43:51 10° SSW
SL-27 R/B 3.9 06:37:36 10° N 06:40:46 34° ENE 06:43:52 10° SE
Cosmos 389 Rocket 3.2 06:38:06 10° SW 06:41:27 33° WNW 06:44:50 10° N
NOSS 3-4 (A) 4.3 06:35:58 10° NW 06:42:44 58° NE 06:49:57 10° ESE
NOSS 3-4 (C) 4.3 06:36:04 10° NW 06:42:50 58° NE 06:50:02 10° ESE
Cosmos 1943 4.4 06:40:28 15° WNW 06:43:15 21° W 06:47:22 10° SSW
SJ-12 3.8 06:39:20 10° N 06:43:26 78° WNW 06:47:29 10° SSW
Cosmos 1515 Rocket 3.5 06:41:35 10° SSW 06:46:00 68° WNW 06:50:28 10° N
Cosmos 2082 Rocket 4.1 06:41:29 10° NNW 06:46:09 25° NE 06:50:50 10° E
Aureole 3 4.4 06:39:43 10° NNW 06:46:19 58° W 06:51:33 10° S
Cosmos 2221 3.9 06:44:18 11° WSW 06:46:58 17° WNW 06:49:50 10° NNW
Cosmos 1655 Rocket 4.1 06:41:35 10° N 06:47:53 86° E 06:54:07 10° S
Cosmos 1627 Rocket 4.4 06:42:05 10° NNW 06:48:13 75° W 06:54:22 10° S
Cosmos 1726 2.0 06:47:34 10° S 06:51:17 83° W 06:55:02 10° N
SMAP 3.1 06:46:43 10° NNE 06:51:25 87° WNW 06:56:05 10° SSW
ATLAS CENTAUR R/B 3.6 06:50:03 10° NNW 06:52:29 15° NNE 06:54:49 10° ENE
ATLAS 2AS CENTAUR R/B 3.5 06:45:35 10° NW 06:52:58 40° WSW 06:59:54 10° S
YAOGAN 1 2.6 06:48:50 10° NNE 06:53:12 88° ESE 06:57:32 10° SSW
CSL-04 Debris 4.3 06:47:57 10° N 06:53:17 53° WNW 06:58:34 10° SW
NOSS 3-3 (A) 4.4 06:47:06 10° SSW 06:53:21 73° SE 07:00:09 10° NE
NOSS 3-3 (C) 4.4 06:47:14 10° SSW 06:53:27 73° SE 07:00:16 10° NE
Cosmos 1484 Rocket 3.5 06:51:26 10° NNE 06:55:26 59° E 06:59:20 10° S
Meteor 2-2 Rocket 4.3 06:52:25 10° SSW 06:58:09 65° WNW 07:03:50 10° N
Cosmos 1634 Rocket 4.0 06:52:35 10° SSW 06:58:51 70° WNW 07:05:07 10° N
Cosmos 2298 Rocket 4.1 06:56:28 10° SW 07:01:40 56° WNW 07:06:54 10° NNE
Cosmos 1455 4.4 06:59:30 10° SSE 07:02:49 30° E 07:06:07 10° NNE
Cosmos 2263 Rocket 2.5 06:58:36 10° SW 07:04:02 45° NW 07:09:31 10° NNE
AQUARIUS 4.2 06:59:47 10° N 07:04:16 64° WNW 07:08:43 10° SSW
USA 234 3.4 06:59:16 10° SE 07:05:48 73° SW 07:12:22 10° WNW
Cosmos 1844 Rocket 3.6 07:00:26 10° S 07:05:56 56° ESE 07:11:30 10° NE
COS B Rocket 4.1 07:03:32 10° NNE 07:06:48 44° E 07:09:49 10° SSE
APEX 3.7 07:06:52 10° WSW 07:09:35 24° NW 07:12:02 10° N
Cosmos 1356 3.6 07:07:56 10° N 07:11:29 80° ENE 07:15:00 10° SSE
CSL-04 Rocket 4.2 07:07:54 10° N 07:12:36 33° WNW 07:17:16 10° SW
Gbstr 26 Del rocket 4.0 07:07:27 10° WSW 07:13:16 88° NNW 07:20:29 10° ENE
Cosmos 2026 Rocket 4.1 07:08:11 10° NNW 07:14:04 54° W 07:19:57 10° SSW
Iridium 4 Rocket 3.5 07:11:02 10° NNW 07:15:12 44° W 07:19:40 10° SSW
COSMOS 2406 3.6 07:14:09 10° NW 07:19:39 47° WSW 07:25:08 10° S
